Regional Weather Roundup
Issued by NWS

Home | Current Version | Previous Version | Text Only | Print | Product List | Glossary Off
Versions: 1 2 3 4 5 6 7 8 9 10 11 12 13 14 15 16 17 18 19 20 21 22 23 24 25 26 27 28 29 30 31 32 33 34 35 36 37 38 39 40 41 42 43 44 45 46 47 48 49 50

000
ASUS45 KPSR 260110
RWRAZ

ARIZONA HOURLY REGIONAL WEATHER ROUNDUP
NATIONAL WEATHER SERVICE PHOENIX AZ
600 PM MST MON SEP 25 2017

NOTE: FAIR INDICATES FEW OR NO CLOUDS BELOW 12,000 FEET WITH NO
SIGNIFICANT WEATHER AND/OR OBSTRUCTIONS TO VISIBILITY.

AZZ001>003-036-260200-
NORTHWEST ARIZONA

CITY           SKY/WX    TMP DP  RH WIND       PRES   REMARKS
BULLHEAD CITY  CLEAR     82  21  10 N16G23    29.75S
KINGMAN        CLEAR     72  24  16 N12       29.88S
$$

AZZ004>008-015-016-018-260200-
NORTH CENTRAL ARIZONA

CITY           SKY/WX    TMP DP  RH WIND       PRES   REMARKS
GRAND CANYON   MOCLDY    59  15  18 NE6       30.03S
WILLIAMS       PTCLDY    57  18  21 N6        30.01S
PRESCOTT       PTCLDY    68  13  12 NW5       29.91S
FLAGSTAFF      PTCLDY    57  11  16 NE7       30.03S
PAYSON           N/A     70   7   8 W7        29.92R
PAGE           PTCLDY    67  19  16 NE3       29.95S
$$

AZZ009>014-017-260200-
NORTHEAST ARIZONA

CITY           SKY/WX    TMP DP  RH WIND       PRES   REMARKS
WINSLOW        CLEAR     69   8   9 N5        29.93F
SAINT JOHNS    CLEAR     67   9  10 NW9       29.94S
WINDOW ROCK    CLEAR     61  17  18 NE9       30.01S
SHOW LOW       CLEAR     63  14  15 N7        30.01R
$$

AZZ540-542>544-546-548-260200-
GREATER PHOENIX AREA

CITY           SKY/WX    TMP DP  RH WIND       PRES   REMARKS
PHOENIX        PTCLDY    86  16   7 W7        29.69S
BUCKEYE        PTCLDY    82  25  12 SW5       29.72R
GLENDALE       PTCLDY    86  16   7 S6        29.72
LUKE AFB       FAIR      85  20   9 SW8       29.69S
DEER VALLEY    PTCLDY    84  15   7 SW8       29.71S
SCOTTSDALE     CLEAR     85  17   8 SW7       29.73S
MESA-FALCON    PTCLDY    90  19   7 SW6       29.72S
MESA-GATEWAY   PTCLDY    84  19   9 CALM      29.73S
CHANDLER       CLEAR     86  16   7 SW6       29.71S
$$

AZZ539-553-260200-
SOUTHWEST MARICOPA COUNTY AND PINAL COUNTY

CITY           SKY/WX    TMP DP  RH WIND       PRES   REMARKS
CASA GRANDE    NOT AVBL
GILA BEND      PTCLDY    85  11   6 NW3       29.70S
$$

AZZ503-504-507>509-260200-
SOUTHEAST ARIZONA

CITY           SKY/WX    TMP DP  RH WIND       PRES   REMARKS
TUCSON         CLEAR     82  17   9 N12G22    29.78S
DAVIS-MONTHAN  CLEAR     81  17   9 NW10      29.77S
RYAN FIELD     CLEAR     81  19  10 NW7       29.78S
NOGALES        CLEAR     78  28  16 W7        29.84R
SIERRA VISTA   CLEAR     75  30  19 SW10      29.88S
DOUGLAS        CLEAR     78  34  20 W7        29.84R
SAFFORD        CLEAR     81  26  13 W5        29.77R
$$

AZZ532-260200-
SOUTHWEST ARIZONA

CITY           SKY/WX    TMP DP  RH WIND       PRES   REMARKS
YUMA           CLEAR     88  21   8 N8        29.71S
$$

CAZ041-043-047-048-061-525>527-560>570-260200-
SOUTHERN CALIFORNIA

CITY           SKY/WX    TMP DP  RH WIND       PRES   REMARKS
DOWNTOWN L.A.  MOCLDY    82  32  16 MISG      29.76F
L.A. AIRPORT   MOCLDY    76  46  34 W15       29.77F
SAN DIEGO      PTCLDY    77  53  43 NW7       29.79R
BURBANK        PTCLDY    81  24  12 E7        29.78S
ONTARIO        MOCLDY    82  25  12 W17       29.78R
RIVERSIDE      MOCLDY    82  32  16 W15       29.77R
PALM SPRINGS   CLEAR     87  22   9 W3        29.76S
EL CENTRO NAS  PTCLDY    87  20   8 N6        29.73F
IMPERIAL       CLEAR     88  26  10 NW5       29.71F
BLYTHE         CLEAR     88  18   7 N8        29.72S
$$

NVZ020-UTZ003-260200-
SOUTHERN NEVADA-UTAH

CITY           SKY/WX    TMP DP  RH WIND       PRES   REMARKS
LAS VEGAS      PTCLDY    77  25  14 NE10      29.86S
SALT LAKE CITY FAIR      58  36  43 N9        30.10S
$$

NMZ009-TXZ055-260200-
NEW MEXICO-WEST TEXAS

CITY           SKY/WX    TMP DP  RH WIND       PRES   REMARKS
ALBUQUERQUE    PTCLDY    72  13  10 N8        29.93R
EL PASO        PTCLDY    82  28  14 W10       29.81S
$$


........................KEY........................
SKY/WX - SKY CONDITION/WEATHER
TMP    - TEMPERATURE IN FAHRENHEIT
DP     - DEW POINT IN FAHRENHEIT
RH     - RELATIVE HUMIDITY IN PERCENT
WIND   - DIRECTION AND SPEED IN MILES PER HOUR (MPH)
VRB    - VARIABLE WIND DIRECTION
PRES   - MEAN SEA LEVEL PRESSURE IN INCHES OF MERCURY
         F - FALLING PRESSURE   R - RISING PRESSURE
         S - STEADY PRESSURE
VSB    - VISIBILITY IN MILES
HX     - HEAT INDEX IN FAHRENHEIT
WCI    - WIND CHILL INDEX IN FAHRENHEIT
TC     - TEMPERATURE IN CELSIUS WHICH IS ALSO KNOWN AS
         TEMPERATURE IN CENTIGRADE
AFB    - AIR FORCE BASE
         LUKE AFB IS LUKE AIR FORCE BASE
         DAVIS-MONTHAN IS DAVIS-MONTHAN AIR FORCE BASE
NAS    - NAVAL AIR STATION
         EL CENTRO NAS IS EL CENTRO NAVAL AIR STATION
N/A    - NOT AVAILABLE




USA.gov is the U.S. government's official web portal to all federal, state and local government web resources and services.